Theta_e
328 328 328 329 329 329 329 328 328 329 329 328 327 327 327 326 324 324 324 325 326 324 319 316 317 319 320 321 319 316 315 317 317 316 315 316 317 317 317 317 317 317 318 318 319 321 323 325 327 329 330 331 332 334 335 335 336 336 337 340 342 343 343 341 339 339 340 342 343 342 340 339 336 334
327 326 327 328 328 328 329 328 328 330 331 330 329 329 329 328 327 326 325 325 326 325 321 318 318 320 321 322 321 317 316 318 318 316 316 316 317 316 316 316 317 317 317 318 318 319 320 322 324 326 328 329 330 331 333 334 336 336 336 337 339 341 342 341 339 339 340 341 343 342 341 340 338 336
325 325 325 326 327 328 329 329 330 331 332 331 329 329 330 330 329 328 327 326 324 322 322 320 319 321 322 322 322 319 318 318 317 316 316 316 316 316 316 317 317 317 317 318 318 318 318 319 321 324 326 328 329 329 330 332 334 335 336 336 337 339 340 340 340 339 339 340 341 341 341 340 340 338
324 324 325 326 327 328 330 330 331 331 330 329 328 328 329 329 329 328 328 327 323 320 323 323 323 323 323 323 321 319 318 318 317 317 317 317 316 316 317 317 317 317 317 317 317 318 318 318 319 321 324 326 328 329 329 330 331 333 335 336 336 337 339 340 340 339 339 339 339 339 340 340 339 338
324 325 326 326 325 326 328 329 329 329 329 328 327 327 328 328 328 328 327 327 325 322 323 325 325 324 324 323 319 318 319 318 317 318 317 316 316 316 316 317 317 317 318 318 318 317 318 318 318 319 321 324 327 329 330 329 330 331 333 335 337 337 338 339 340 340 339 339 338 338 339 339 338 337
325 326 326 324 322 322 323 324 325 326 326 326 326 326 327 327 326 326 326 327 326 325 324 326 326 325 324 322 318 318 319 318 318 318 317 316 316 316 316 317 317 318 318 319 319 318 317 317 318 318 319 321 324 328 330 331 330 330 331 333 336 337 337 338 338 339 340 339 338 338 338 338 338 338
326 326 325 322 321 321 321 321 321 322 322 323 323 323 324 324 323 324 326 326 327 326 326 325 325 324 322 320 318 319 319 318 318 319 318 316 316 316 316 316 317 317 318 318 319 319 318 317 318 318 319 320 322 325 329 331 331 330 330 331 333 336 337 337 337 338 340 339 338 338 338 339 339 339
325 323 322 322 322 322 323 323 322 323 322 322 321 321 322 322 322 323 324 325 326 327 326 323 321 322 321 320 319 319 318 317 318 319 318 317 316 316 316 316 316 317 317 317 318 319 319 318 318 318 319 319 321 323 327 331 332 331 331 330 331 334 336 338 337 338 340 341 339 338 339 340 340 341
322 322 323 324 324 324 324 324 324 324 324 324 323 323 323 323 324 325 324 324 325 326 326 321 318 319 320 319 319 318 317 318 319 319 319 317 316 316 316 316 317 317 317 316 316 318 320 319 318 318 319 319 320 321 324 329 332 332 332 331 330 332 334 337 338 338 340 341 340 339 340 341 342 342
322 323 324 325 325 325 325 325 325 326 326 325 325 324 324 324 325 325 324 324 324 325 325 322 319 318 318 318 318 317 318 319 319 320 319 317 316 316 317 317 317 317 317 317 316 317 318 320 319 318 319 320 320 320 323 327 331 333 333 333 331 331 332 335 337 338 340 341 341 340 341 341 342 342
323 324 325 326 326 326 326 326 326 326 326 326 326 326 325 324 323 323 323 323 323 324 323 321 319 318 318 318 318 318 318 319 319 320 320 318 317 316 317 317 317 318 318 317 316 316 317 319 320 319 319 320 320 320 321 324 329 332 333 333 332 331 331 333 335 337 338 340 341 341 342 342 342 342
324 325 326 327 326 326 326 326 327 327 327 327 327 326 326 324 322 321 322 322 322 323 322 321 319 319 319 319 319 318 318 319 319 320 320 319 318 317 317 317 318 318 318 317 317 316 317 319 321 320 319 319 320 321 321 323 327 331 333 333 333 333 331 332 334 335 336 339 341 342 342 343 342 341
325 326 327 327 326 326 326 326 325 325 324 324 325 325 325 324 322 321 321 321 322 322 323 321 320 320 320 319 319 319 319 320 320 321 320 320 319 319 319 318 318 318 318 317 317 317 318 319 320 321 320 320 320 321 321 322 325 329 332 333 334 334 332 331 332 334 334 337 340 342 343 342 341 340
325 326 326 326 326 326 325 324 322 321 320 320 321 323 324 323 322 321 322 322 322 323 323 322 321 321 321 320 319 320 320 320 321 321 321 321 321 320 320 319 319 319 318 317 317 317 318 319 320 320 320 320 320 320 321 323 325 328 331 332 333 334 334 332 332 332 334 335 337 340 342 342 341 340
326 326 326 326 326 326 325 322 320 318 318 319 320 322 323 323 322 321 321 322 322 322 323 322 322 322 322 321 320 320 321 321 321 322 322 322 322 321 321 320 319 319 318 317 317 317 318 320 320 320 320 320 320 320 321 323 326 328 330 331 333 334 334 334 333 333 334 335 336 337 340 342 341 340
326 326 326 326 326 326 325 323 320 318 318 319 320 321 322 322 321 321 321 322 322 322 323 323 323 323 322 322 321 321 321 322 322 322 322 322 322 321 320 320 320 319 317 317 317 317 318 320 321 321 320 320 321 320 321 323 326 328 330 331 333 335 335 335 335 335 336 337 337 336 337 339 339 339
327 327 326 326 326 325 325 323 320 319 319 319 319 320 321 321 321 321 321 322 323 323 323 324 323 322 322 322 322 321 322 323 323 323 322 322 321 321 320 319 319 318 317 317 318 318 319 320 321 321 321 321 321 321 321 322 324 328 330 331 333 334 335 335 336 336 337 338 339 338 336 336 336 337
328 327 326 325 325 325 325 322 319 319 319 319 319 319 319 319 320 321 322 323 324 324 324 323 323 322 322 322 322 321 322 323 322 323 323 322 321 320 320 319 318 317 317 318 319 319 320 321 321 321 321 321 321 322 322 322 323 327 330 332 333 334 335 335 336 336 337 339 340 339 338 336 335 336
327 326 325 325 325 325 324 321 319 319 319 318 317 317 316 316 317 319 321 324 324 324 324 323 323 322 321 321 321 321 321 321 322 322 322 321 320 320 318 317 317 316 317 318 319 320 321 321 321 321 321 321 322 322 323 323 323 326 331 332 333 334 334 335 336 335 337 339 340 340 340 338 337 337
326 325 325 325 325 324 323 321 320 320 319 318 317 315 314 315 316 318 321 323 324 324 323 323 322 322 321 321 321 321 321 321 321 321 320 319 318 317 317 317 317 317 318 319 319 320 321 321 321 321 322 322 322 322 323 324 323 326 330 333 334 334 334 334 335 335 336 338 340 340 341 340 339 338
325 325 325 325 324 323 322 321 321 320 319 318 316 315 314 315 317 319 320 322 322 322 322 321 321 321 320 320 320 321 321 321 320 319 319 318 317 316 316 317 317 318 318 319 319 320 320 321 322 322 322 322 322 323 324 324 324 326 331 334 334 334 334 334 335 335 336 337 339 340 340 340 340 339
325 325 325 325 324 323 322 321 321 319 318 317 315 314 315 317 318 319 320 320 320 321 321 321 320 320 320 321 321 321 320 319 318 318 319 318 316 316 317 317 318 318 319 319 319 320 320 321 322 322 323 323 323 323 324 325 324 326 330 334 335 334 334 334 334 335 335 335 337 338 339 339 339 338
325 325 325 324 323 322 321 320 319 319 318 316 314 315 317 319 319 320 320 320 320 320 320 320 320 320 321 321 321 320 319 318 317 318 319 318 316 316 317 318 318 318 319 319 319 319 320 321 322 323 323 324 324 325 325 325 325 326 330 333 335 335 334 334 335 336 336 335 335 335 336 337 337 336
325 324 324 323 322 321 320 320 319 319 317 314 313 316 319 319 320 320 320 320 320 320 320 320 320 321 321 320 320 319 318 317 316 317 318 318 317 317 318 318 318 318 319 319 319 320 321 322 323 324 324 324 325 326 327 326 324 327 331 333 335 335 335 335 336 336 336 336 335 334 334 334 334 333
323 323 323 322 321 320 320 320 319 317 313 312 314 317 319 320 320 320 320 320 320 320 320 320 320 320 319 319 319 317 316 316 315 315 317 318 318 318 318 318 318 318 319 320 321 321 323 324 324 324 325 325 324 326 329 330 328 329 333 335 335 336 335 335 336 336 337 336 335 334 334 333 332 333
322 322 321 321 320 320 320 320 317 313 311 312 316 318 319 319 319 319 319 319 319 319 319 319 319 319 318 318 317 316 315 314 312 312 315 317 319 319 318 318 318 319 319 320 322 323 324 325 325 325 325 326 325 325 329 333 333 334 336 337 337 337 336 336 337 337 337 336 336 335 334 334 334 335
321 321 320 320 321 320 320 318 314 310 310 313 316 318 318 318 318 318 318 318 318 318 318 318 318 318 317 317 315 314 313 312 311 310 313 317 319 319 317 317 318 319 319 320 322 324 325 325 325 326 326 327 327 327 328 331 334 336 337 338 338 337 338 339 339 338 336 336 335 335 337 338 340 341
320 320 320 321 321 320 319 316 311 309 311 314 317 318 318 318 317 318 317 317 316 316 317 317 317 317 316 314 313 312 311 311 310 310 312 316 319 319 317 316 317 319 320 320 322 324 325 325 326 326 326 327 329 330 331 332 334 335 337 338 338 338 339 341 341 340 338 336 336 338 340 342 344 345
319 320 321 321 320 319 317 312 309 310 314 316 317 318 317 317 317 317 316 316 315 315 315 315 316 315 314 312 311 310 311 310 310 309 311 315 318 319 317 316 316 319 320 320 321 324 326 326 326 326 326 327 328 331 333 334 335 335 337 338 338 338 339 341 341 341 341 339 337 339 341 343 345 347
320 320 320 320 319 317 313 310 311 314 316 317 317 316 316 316 316 315 315 314 314 314 314 314 314 313 311 310 310 310 311 310 309 308 308 313 318 319 317 315 316 318 320 320 321 324 325 326 326 326 326 327 328 331 334 336 336 336 337 338 338 338 339 340 341 343 344 342 339 339 343 346 347 347
319 319 319 319 316 313 310 311 314 316 316 316 316 315 315 315 315 314 313 313 313 312 312 312 310 309 309 309 309 310 310 308 307 306 307 312 318 318 316 315 315 316 319 321 322 324 325 327 327 326 326 327 329 331 334 336 337 338 338 338 338 338 338 339 340 342 344 343 342 342 345 348 348 347
319 319 318 316 312 310 312 314 316 316 316 315 315 314 314 314 313 313 312 312 311 310 309 308 308 307 308 308 308 308 307 305 305 305 307 312 319 318 315 315 315 315 317 320 322 324 326 328 327 327 327 327 328 330 332 335 337 338 338 339 340 339 339 339 339 339 341 343 343 343 344 346 347 347
319 318 315 312 310 311 314 316 316 315 314 314 313 313 313 313 312 312 310 309 308 307 307 307 306 306 307 306 305 305 304 304 305 305 306 313 319 318 315 315 315 315 317 319 321 323 326 328 329 328 328 328 328 330 332 335 336 337 338 339 340 341 341 341 340 340 341 344 345 343 343 343 344 344
318 316 313 310 310 312 314 314 314 313 312 312 312 312 312 311 310 309 308 307 306 306 306 306 306 305 304 303 302 302 302 303 304 304 307 315 320 319 316 315 315 315 317 319 320 321 323 326 329 330 329 329 329 330 332 334 336 337 338 339 340 341 342 342 341 342 343 345 345 344 343 343 344 344
316 313 311 310 311 312 312 312 312 311 311 311 311 310 309 308 307 306 306 306 306 307 307 306 304 302 301 301 301 301 301 302 303 303 308 316 320 319 317 316 315 315 316 318 320 321 321 323 327 329 331 331 331 332 333 333 335 337 337 338 340 340 340 340 341 342 344 344 344 343 342 343 344 345
313 311 310 311 311 311 311 311 311 311 311 310 309 309 308 307 307 306 306 307 307 306 305 303 301 300 300 299 299 299 300 302 302 304 310 316 319 320 319 316 315 315 315 317 319 321 321 321 324 327 331 332 333 334 334 332 334 336 337 338 340 340 340 341 341 342 343 343 342 342 343 342 342 343
310 311 311 312 312 310 310 310 310 310 310 309 309 309 308 308 307 306 307 306 305 304 302 300 299 299 298 297 298 299 301 302 302 305 312 317 319 320 320 318 315 315 315 316 318 320 320 321 322 325 328 331 331 331 332 332 333 335 335 337 339 340 340 340 340 341 342 342 341 340 340 340 341 341
310 311 313 312 311 310 309 310 310 309 309 309 309 309 307 307 306 306 305 304 302 300 299 298 297 296 296 297 299 299 300 302 302 305 311 317 318 319 320 318 316 316 315 315 317 319 320 320 321 322 323 325 325 326 328 331 333 334 335 336 338 338 337 337 337 337 339 340 341 340 340 340 340 339
311 312 313 312 310 309 309 309 309 309 309 309 308 307 306 306 305 304 302 300 299 298 297 296 295 295 296 297 299 298 299 302 304 305 310 316 317 318 320 319 317 316 315 315 317 319 319 319 320 321 321 321 321 321 324 328 330 331 333 335 336 337 336 335 335 336 336 338 340 340 340 340 340 339
311 312 311 310 309 309 309 309 309 308 308 307 306 305 305 304 302 300 298 297 297 296 296 295 295 295 296 297 297 297 298 302 304 305 309 315 317 318 319 320 318 317 316 315 316 318 319 318 319 319 319 320 320 320 321 325 326 327 329 331 333 334 335 334 335 336 336 337 338 339 339 339 339 340
310 310 309 308 308 308 308 308 308 307 305 305 304 304 302 300 298 297 296 296 295 295 295 295 295 295 296 296 297 296 297 300 303 305 308 313 317 318 319 320 319 318 317 316 315 317 319 319 318 318 319 319 320 320 320 322 323 323 324 326 328 331 332 333 334 335 336 336 337 338 338 338 338 339
308 308 307 307 307 308 307 307 306 305 304 304 303 300 298 297 296 295 295 295 295 295 295 295 295 295 295 295 296 296 297 298 301 304 307 312 316 317 318 319 319 319 319 318 315 315 317 318 318 319 319 319 319 320 320 319 319 319 320 321 323 326 329 331 332 333 334 335 336 336 337 338 338 338
308 307 307 307 307 307 306 305 304 304 305 303 299 296 295 295 295 295 295 295 295 295 295 295 295 295 295 295 295 296 296 297 299 302 306 310 314 317 318 319 319 319 320 319 316 314 315 316 316 317 318 318 318 318 318 319 319 319 319 319 320 322 324 327 329 331 332 333 334 334 335 336 336 336
307 307 307 306 306 306 305 304 304 304 302 299 295 294 295 295 294 295 295 295 295 295 295 295 295 295 295 295 295 295 296 296 297 299 304 308 313 315 317 318 318 318 319 319 317 315 315 315 315 315 316 316 316 317 317 318 318 318 319 319 319 319 320 322 325 329 331 332 332 333 334 335 336 336
307 307 306 305 305 304 302 302 302 301 298 295 294 294 295 295 295 295 295 295 295 294 294 295 295 295 295 295 295 295 295 296 296 297 301 306 311 314 316 317 317 318 318 319 319 317 316 315 315 315 315 315 315 316 316 316 317 317 318 318 319 319 319 319 321 324 327 327 328 330 332 334 335 335
Wind_Speed
13 13 13 14 14 15 16 17 17 17 18 17 17 17 18 19 21 22 24 27 26 24 22 21 18 16 18 21 21 21 20 20 20 21 22 23 24 25 25 25 25 25 24 24 25 27 31 35 39 41 42 42 42 42 41 41 41 41 42 42 42 42 40 39 38 38 37 36 36 35 35 35 34 33
13 13 14 14 14 15 16 17 19 20 20 18 18 18 19 20 22 23 26 30 30 27 24 22 21 21 23 25 25 23 22 22 22 23 24 25 27 29 29 29 28 28 27 27 27 27 29 32 36 40 42 44 44 44 44 43 43 42 42 43 43 44 43 41 40 39 38 37 37 36 36 36 35 34
14 14 14 14 15 16 17 17 20 22 20 18 17 18 19 21 23 23 26 30 32 30 28 26 24 24 26 27 27 26 24 23 23 24 26 27 29 31 32 32 31 31 30 29 29 29 29 30 32 36 40 43 44 45 46 45 45 44 43 43 43 44 44 43 42 41 40 39 39 37 37 37 36 35
14 15 15 16 16 17 17 18 19 20 19 17 17 18 19 20 22 23 25 29 33 33 31 29 26 25 26 27 26 27 26 24 24 25 26 29 31 33 34 35 35 34 34 33 32 31 31 31 32 34 37 41 44 45 45 46 47 46 45 44 44 44 44 44 44 43 42 41 40 39 38 37 37 36
14 15 16 16 16 16 17 17 17 18 17 18 18 18 19 19 20 22 24 28 32 33 31 31 29 27 27 27 25 27 28 26 26 26 27 30 33 35 37 38 38 36 36 35 35 34 32 32 32 33 35 38 42 44 45 46 47 48 47 46 45 45 45 45 45 45 45 43 42 41 39 38 38 37
14 15 16 15 14 15 16 16 17 18 18 19 20 19 19 20 20 21 24 27 32 34 33 32 31 28 27 27 26 26 29 28 27 28 29 31 34 37 39 40 39 38 37 37 36 36 34 32 33 34 35 37 40 43 45 46 46 48 49 48 47 46 46 46 45 45 46 46 44 42 41 39 39 38
13 13 14 13 13 14 16 16 16 17 18 19 20 20 20 20 20 21 23 26 30 34 34 32 32 29 27 28 28 28 29 30 29 29 30 32 35 38 39 40 40 40 40 40 38 37 36 34 33 34 35 37 39 41 44 46 46 47 48 49 49 47 47 47 46 45 46 47 46 44 42 40 38 38
11 12 13 13 14 15 17 17 17 16 17 18 19 20 19 20 21 21 23 25 26 30 31 31 31 30 29 30 30 30 31 30 30 30 32 34 36 38 39 40 42 43 43 44 42 39 37 35 33 33 35 37 39 40 43 45 46 47 47 49 49 49 48 47 47 46 47 48 48 45 43 41 39 38
10 12 14 15 16 17 18 19 19 19 18 18 19 20 20 21 23 23 24 25 25 26 29 31 31 32 32 32 32 31 31 32 32 32 32 34 37 38 39 42 44 45 46 47 46 43 40 36 34 33 34 36 38 40 42 44 46 46 46 47 49 50 49 48 47 47 47 48 48 47 45 43 41 39
12 13 15 17 18 19 19 20 20 21 21 21 21 22 22 23 24 25 26 26 26 26 28 30 32 33 33 34 34 32 31 33 35 35 35 36 37 39 42 44 46 47 49 50 49 47 44 40 35 34 34 34 37 39 41 43 45 46 46 46 47 49 50 49 47 47 47 47 47 47 46 43 42 40
14 16 17 19 19 20 21 21 21 22 23 23 24 25 24 24 25 27 27 26 27 27 28 29 31 33 34 35 36 33 32 34 35 35 37 40 40 41 44 47 49 50 51 53 52 50 48 46 41 36 35 34 35 38 40 43 44 46 46 46 46 48 50 50 48 47 47 47 46 46 45 43 41 40
17 18 19 20 21 21 21 22 23 24 24 25 26 27 25 24 25 26 27 28 28 28 28 29 30 32 35 36 36 35 34 35 35 34 37 43 44 45 47 49 51 52 53 55 55 53 50 49 47 42 37 34 33 34 38 41 43 44 45 45 46 47 49 50 49 47 47 47 46 45 44 42 41 40
19 20 21 22 22 23 23 23 25 25 26 26 27 27 26 25 25 25 27 28 28 28 29 29 30 32 35 36 36 37 36 36 37 36 38 43 46 48 51 52 51 52 55 56 57 56 52 50 49 46 42 37 32 32 34 38 41 43 44 45 45 46 47 49 49 48 47 47 47 46 44 43 41 40
21 22 24 25 25 25 25 24 24 25 25 25 26 26 25 25 25 25 26 27 28 28 29 29 30 32 35 37 37 38 38 37 37 38 40 44 48 50 54 56 54 52 54 56 59 59 55 50 48 46 45 42 36 33 33 34 38 41 42 43 44 45 46 48 48 48 47 47 47 47 46 44 42 40
22 23 25 26 27 27 26 24 22 23 24 24 24 24 25 25 26 26 27 27 26 26 28 29 30 33 36 37 37 38 38 38 38 39 41 44 48 50 53 57 59 54 52 55 61 62 57 51 47 46 46 45 40 35 33 33 36 39 40 41 43 45 46 46 47 47 46 46 47 48 49 47 44 41
24 25 27 27 28 27 26 24 22 22 22 23 23 24 25 26 27 28 29 29 27 26 28 30 31 33 35 36 37 37 37 37 38 41 42 45 48 50 52 56 60 57 52 54 61 63 58 50 46 45 46 46 42 36 32 34 36 38 38 39 41 44 45 45 45 45 44 44 45 47 49 49 47 43
26 27 28 29 28 27 25 24 22 22 22 23 24 25 26 27 28 29 30 29 27 27 27 29 31 32 33 34 35 36 36 35 37 41 45 45 47 51 53 55 58 56 52 53 57 61 59 49 45 47 46 45 43 37 31 32 37 39 38 37 39 42 44 45 44 44 44 43 43 45 47 48 47 44
26 27 28 29 29 26 25 23 22 22 23 24 24 25 26 28 28 29 30 29 28 28 28 30 32 33 33 33 34 35 36 36 38 43 46 46 48 52 53 52 54 54 52 50 51 57 58 51 48 50 47 43 42 37 31 30 35 39 37 36 38 40 42 44 44 44 43 42 41 42 44 45 46 45
24 26 28 29 29 27 25 22 22 23 24 24 25 26 27 28 29 29 30 29 29 29 30 32 33 33 35 35 34 35 37 38 40 43 44 44 45 47 48 49 53 55 53 48 46 52 56 52 49 51 48 43 42 38 32 30 34 38 37 35 36 38 41 42 43 43 43 41 40 40 41 43 44 44
23 26 27 28 28 26 24 23 23 25 25 25 26 27 28 28 28 29 29 29 29 31 33 33 33 33 34 34 33 33 34 35 36 38 39 40 40 42 45 49 53 55 55 51 46 50 54 52 50 51 48 43 40 38 33 29 33 37 36 34 35 37 39 41 42 42 43 42 40 39 40 42 43 44
24 26 27 28 27 25 24 24 25 25 24 25 26 27 27 27 28 28 29 29 29 31 31 31 32 32 31 30 28 27 27 28 30 33 37 37 36 39 44 47 51 56 58 54 48 46 49 49 47 47 45 41 39 37 33 29 32 36 35 33 34 36 38 39 40 41 42 42 41 40 40 41 42 42
25 26 27 28 26 25 25 25 25 24 24 25 26 27 27 27 27 27 27 28 28 29 29 28 29 29 27 25 24 23 24 27 28 30 33 33 34 38 43 45 50 57 59 53 45 43 46 47 45 42 39 38 37 35 31 28 31 36 35 32 33 35 37 38 38 38 40 41 41 41 41 41 41 41
26 27 28 27 26 26 25 24 24 24 25 25 25 25 25 26 27 26 26 26 27 28 29 28 27 25 22 21 22 24 26 28 28 28 29 30 32 38 44 46 49 54 58 53 45 45 48 47 42 37 34 33 33 30 27 29 32 34 34 32 32 34 36 37 36 36 37 38 40 41 41 41 41 41
26 27 27 27 26 25 23 23 23 24 25 24 24 24 24 25 26 25 25 26 27 28 29 27 24 22 20 21 23 26 28 28 28 28 27 28 32 37 44 47 47 50 56 54 48 48 48 41 36 34 30 30 29 24 20 24 31 32 31 32 32 33 35 36 35 36 37 38 39 40 40 41 41 42
26 26 26 25 24 23 22 23 24 24 24 23 22 23 23 24 24 25 26 27 27 26 25 23 21 21 22 23 25 27 28 28 28 29 28 28 32 36 40 45 47 50 52 49 44 41 37 30 29 29 27 27 28 24 16 16 25 29 29 30 31 33 35 35 35 36 38 39 40 40 40 41 41 41
25 24 23 22 22 22 22 23 23 23 22 21 21 22 22 23 24 25 26 26 24 23 22 22 23 23 24 26 26 26 27 27 29 31 30 29 31 34 36 39 44 46 46 43 37 30 26 23 23 24 23 22 24 25 20 15 19 23 25 28 31 32 34 34 35 36 38 39 41 41 41 41 41 40
22 21 20 20 21 21 22 23 22 21 21 20 20 20 22 23 24 23 23 22 22 21 22 24 24 24 25 26 26 26 26 28 30 32 32 30 30 33 35 38 40 39 38 38 32 24 21 21 21 21 20 19 20 23 23 18 17 19 21 24 28 31 32 33 34 35 38 40 41 41 41 40 39 39
19 19 19 19 20 21 22 22 21 20 19 19 19 20 22 22 22 21 20 21 21 23 24 26 26 25 25 25 25 26 28 30 32 34 33 31 31 32 34 38 40 37 34 34 29 21 18 19 21 23 22 21 20 22 23 20 17 17 19 20 25 29 31 32 33 34 36 39 41 42 41 40 39 39
18 18 18 19 20 20 21 20 19 18 18 18 20 21 22 21 20 20 21 22 24 25 27 28 28 26 24 24 24 26 29 31 33 34 34 32 31 32 35 38 40 37 34 33 27 19 17 18 22 24 23 23 21 18 19 19 18 17 17 18 23 27 30 31 33 34 35 38 41 42 41 40 40 40
16 17 17 18 19 19 19 18 17 17 17 18 20 21 20 20 19 21 23 25 26 27 27 26 26 25 24 24 25 27 31 32 32 33 35 34 32 33 36 39 41 40 37 32 26 19 16 19 23 25 24 25 21 13 10 14 18 18 17 18 20 24 27 31 33 34 36 38 40 41 41 40 40 40
16 16 17 18 18 17 16 16 15 16 17 18 19 20 20 20 21 23 25 25 25 25 24 24 24 23 24 25 27 30 32 33 31 31 33 34 33 33 36 39 41 44 42 35 27 19 14 16 22 25 26 26 22 13 7 10 16 19 19 19 20 21 24 29 32 34 35 36 38 41 41 41 40 39
15 16 17 16 16 15 14 14 14 16 17 18 18 19 19 20 21 23 23 23 22 22 22 23 24 24 26 28 30 32 33 32 29 29 31 32 30 30 34 37 39 44 46 41 32 21 13 14 18 21 23 23 21 16 11 10 14 18 18 18 20 22 25 27 28 31 34 35 37 39 39 39 39 39
15 15 15 14 14 13 13 13 15 16 16 17 17 18 19 20 21 21 21 21 20 20 21 23 25 27 29 30 31 32 32 29 26 27 29 29 28 28 32 35 37 41 45 45 40 29 17 13 14 15 18 20 19 17 14 12 14 16 16 17 18 20 22 25 26 29 35 38 39 38 38 38 39 39
14 13 13 13 13 13 14 15 15 16 16 16 15 16 17 18 19 20 19 19 20 21 22 24 27 28 30 30 30 29 28 26 25 25 26 26 25 25 29 33 36 39 43 45 44 38 27 15 9 8 12 17 19 18 17 17 18 17 17 18 19 18 17 18 21 25 34 38 37 35 36 36 37 38
13 12 12 12 13 14 15 15 16 15 14 14 14 14 15 17 18 18 19 20 21 23 24 26 27 27 27 27 27 26 26 26 25 24 24 24 23 23 25 30 34 38 42 45 44 41 35 22 8 6 8 11 13 15 17 18 19 20 20 20 20 19 18 17 16 18 26 31 30 30 32 34 35 36
12 12 12 12 13 14 14 15 14 14 13 13 14 15 16 17 18 19 20 22 24 25 25 25 24 24 23 24 24 24 25 25 25 23 22 23 23 23 23 26 31 35 38 42 43 40 37 31 16 3 10 10 9 8 7 5 7 14 20 22 20 18 18 18 16 15 18 22 24 25 29 31 33 34
13 12 12 12 13 13 13 13 13 12 12 13 15 17 17 18 19 20 22 24 25 24 22 21 21 21 21 22 23 23 23 23 22 22 22 22 22 23 23 24 28 32 35 38 40 38 35 35 27 13 0 6 7 6 5 6 5 2 8 14 16 14 12 12 13 13 13 15 19 22 24 26 28 30
13 12 12 13 13 13 12 12 12 13 13 15 17 17 17 17 19 21 23 23 21 19 18 17 18 19 20 21 22 22 23 22 21 21 21 21 21 22 22 22 25 28 31 34 36 35 34 35 34 27 20 13 9 8 7 7 6 1 2 5 9 10 10 8 8 9 10 11 15 17 19 20 22 24
13 13 13 13 12 12 11 11 12 14 15 16 17 16 16 18 20 21 21 19 16 15 15 15 16 18 19 20 21 22 22 22 22 22 22 21 20 20 20 21 22 25 29 32 34 33 34 36 34 31 27 22 18 17 17 14 9 3 4 5 5 7 9 9 9 9 10 11 12 13 13 15 16 17
13 13 13 12 12 12 11 12 13 14 15 15 15 16 18 19 19 18 16 14 13 13 13 14 16 17 18 19 20 21 22 22 23 23 23 21 20 19 19 18 18 20 25 29 31 31 33 34 32 29 26 22 18 18 20 18 13 8 3 2 5 8 11 13 12 12 13 12 12 12 12 13 13 14
11 11 11 11 11 11 12 13 14 13 13 14 16 17 18 17 15 13 12 12 12 12 12 14 16 17 18 19 20 21 22 23 23 24 23 22 20 19 18 17 17 18 20 25 28 29 30 30 28 26 26 25 23 24 25 23 19 16 15 11 5 3 10 13 15 16 16 15 14 13 13 12 12 12
9 9 10 10 11 11 12 13 12 12 13 15 16 15 14 12 11 11 11 11 11 12 12 14 15 16 17 18 19 20 21 22 24 24 23 23 21 19 17 17 18 17 17 18 21 25 26 26 26 25 26 28 31 31 30 28 26 24 22 21 17 11 3 6 11 15 17 18 16 15 14 13 12 13
9 9 10 10 10 10 11 11 11 12 13 14 13 11 10 9 9 9 9 10 11 12 13 14 14 15 16 17 18 19 20 21 23 24 23 23 22 20 17 16 17 18 15 13 15 19 23 24 25 27 27 28 30 31 30 29 29 29 27 26 25 23 19 12 4 7 13 16 17 18 17 15 15 15
10 10 10 10 9 9 10 10 11 12 12 11 9 8 7 7 8 8 9 10 11 12 13 13 14 15 16 17 17 18 19 20 22 23 22 22 21 20 18 17 17 19 18 13 11 14 19 22 23 26 28 29 28 28 27 27 29 29 29 28 29 29 28 26 20 10 7 8 10 13 16 16 16 15
11 11 10 9 8 8 9 10 10 10 9 7 6 6 6 7 7 8 9 10 11 12 12 13 13 14 16 17 17 18 18 19 20 21 21 21 20 20 20 19 18 19 20 18 13 10 13 17 19 21 23 26 27 27 26 25 25 26 26 27 29 30 31 32 31 27 22 19 14 7 7 11 13 14
Wind_Direction
286 288 290 290 288 286 283 284 287 289 291 293 293 297 302 302 303 307 308 308 310 314 320 323 322 323 327 329 330 329 326 324 323 325 327 327 328 328 326 322 318 313 309 305 298 288 277 270 264 260 259 258 257 255 254 252 249 246 244 243 243 243 242 242 241 242 243 244 243 244 247 247 246 246
283 285 289 291 291 289 285 286 287 287 288 291 294 294 295 296 297 300 301 301 303 307 312 316 315 316 320 321 322 324 324 324 325 327 329 329 330 329 327 325 322 318 313 308 304 298 289 279 270 264 260 257 256 256 255 253 252 249 246 243 242 242 241 241 240 241 241 241 241 243 245 247 246 246
277 284 290 292 293 291 289 289 289 288 289 294 300 299 296 296 296 296 296 296 300 305 308 310 311 313 316 316 316 318 321 323 325 327 328 330 330 330 329 327 325 321 316 311 306 301 296 288 278 269 263 259 256 255 254 254 253 252 249 246 243 242 241 240 240 240 240 240 240 241 243 245 246 247
277 285 289 291 293 293 289 287 289 293 294 297 301 302 299 298 297 297 295 294 300 305 306 308 312 315 315 313 312 313 316 321 324 325 326 329 331 330 329 328 327 325 321 315 309 303 297 292 285 275 267 261 257 254 254 253 252 252 251 249 245 243 241 240 239 239 239 239 239 239 240 242 244 245
281 286 288 291 296 297 293 290 291 295 298 298 300 301 299 298 299 298 297 297 300 303 305 307 311 314 313 311 310 310 312 317 321 321 323 328 331 331 330 329 328 328 326 320 313 306 298 291 286 279 271 264 259 255 253 252 252 251 251 250 248 244 242 241 240 239 238 238 237 237 238 240 242 244
282 284 287 295 303 303 300 300 299 299 300 300 299 299 298 297 298 298 299 299 299 300 303 306 308 310 310 308 307 308 310 314 317 317 320 325 329 331 332 331 329 330 330 326 319 312 302 292 283 279 273 267 261 256 252 251 251 250 250 249 249 247 243 241 241 240 238 237 236 236 236 238 240 243
284 285 290 298 305 305 302 303 304 304 304 302 300 300 298 296 296 297 298 298 298 299 302 304 306 308 309 306 306 307 308 312 314 314 316 322 327 330 332 332 330 331 331 330 326 318 309 297 284 277 272 267 263 258 253 250 249 249 249 248 248 247 245 242 241 240 238 236 235 235 234 235 238 240
285 286 292 299 303 302 301 302 303 303 303 302 302 301 299 297 297 298 298 296 298 300 301 302 304 308 308 306 307 308 308 309 310 309 314 320 324 327 330 330 330 331 332 331 329 324 316 302 288 279 273 267 263 259 254 250 248 248 248 247 247 246 246 244 241 240 237 234 234 234 233 234 236 239
280 286 295 302 302 300 299 300 301 301 301 301 300 299 298 297 297 297 297 295 296 297 298 299 304 307 307 307 307 308 308 308 307 307 311 317 321 324 327 328 329 331 331 330 328 326 321 310 293 282 276 270 263 259 256 251 248 247 247 247 246 245 245 244 241 239 236 233 232 233 233 234 235 238
278 288 297 300 298 295 296 297 297 297 297 296 296 296 297 296 295 294 294 294 294 294 295 298 302 305 306 306 306 308 308 307 306 307 309 313 317 320 323 324 325 328 329 328 327 326 323 317 303 288 280 274 265 259 256 251 248 246 246 245 245 244 243 243 242 238 236 233 231 231 232 233 234 236
283 288 293 295 294 293 292 293 293 293 291 292 293 295 296 297 295 293 293 293 292 293 295 297 300 303 305 305 305 307 308 305 305 307 308 310 314 317 319 319 321 323 325 326 326 324 323 320 312 298 286 278 269 261 256 252 248 245 245 244 244 243 242 241 241 238 236 234 231 230 230 231 232 233
285 287 290 292 292 290 288 288 288 287 286 287 289 291 294 295 294 293 292 291 290 291 292 295 298 301 302 303 304 306 306 304 304 307 306 306 310 314 315 315 316 318 321 323 324 322 320 318 314 306 293 282 272 263 257 253 249 245 244 244 243 242 241 240 240 239 236 234 231 230 229 229 230 232
287 290 291 292 290 288 286 286 285 285 284 284 285 287 289 291 291 291 290 289 288 288 289 291 295 298 298 300 303 304 305 305 305 306 306 305 307 310 310 310 312 315 318 321 321 319 316 314 311 306 297 287 278 270 260 253 249 245 244 243 242 241 241 240 239 239 236 234 231 230 228 228 230 233
289 291 292 293 292 291 290 289 289 288 287 286 285 285 287 289 290 289 289 289 288 288 287 290 294 295 296 298 302 303 304 304 303 304 305 304 306 309 308 308 311 314 316 318 317 315 313 310 306 303 297 290 283 275 265 254 247 244 243 243 242 240 240 240 239 239 237 235 232 230 229 229 232 235
291 292 292 293 294 293 293 293 293 292 292 290 288 288 289 289 289 287 288 289 289 289 289 290 292 293 294 298 302 302 302 303 303 302 303 304 305 307 306 306 309 313 316 316 313 311 310 307 304 300 296 291 285 275 265 254 244 241 240 241 241 239 239 239 239 239 238 236 234 232 230 231 233 237
291 294 295 295 294 293 294 295 295 294 294 293 291 289 288 288 288 287 287 288 288 288 288 289 291 293 296 299 300 300 301 302 301 299 300 301 302 303 302 303 306 310 314 313 309 308 309 307 303 300 295 290 285 276 263 253 244 238 236 237 238 237 236 237 238 238 238 237 236 234 232 232 234 236
290 296 298 297 295 293 292 294 297 296 295 294 292 290 288 287 286 286 286 286 285 284 286 289 293 297 298 298 298 299 300 300 298 297 298 300 300 300 301 302 304 308 311 310 306 305 307 305 301 299 295 288 284 276 264 253 244 238 235 234 234 234 234 235 236 236 237 237 237 235 233 233 234 235
289 296 297 296 294 292 291 293 296 296 297 297 295 294 292 290 288 286 285 283 280 279 284 291 296 299 299 297 297 298 297 296 296 297 298 300 300 300 302 303 304 306 310 310 304 300 302 303 299 297 294 288 283 276 265 253 243 237 234 232 231 232 232 233 234 234 234 236 236 234 231 231 232 233
291 294 294 293 292 292 291 293 296 298 299 299 299 299 296 294 292 287 284 281 279 280 286 292 296 297 296 295 294 294 296 297 297 297 298 300 302 304 306 306 305 307 311 311 302 295 298 301 296 293 293 288 282 276 265 251 240 235 232 229 229 229 229 231 232 231 231 233 233 232 229 228 229 230
291 291 291 291 291 291 291 294 297 298 298 299 301 301 300 298 294 289 284 281 281 284 289 292 293 293 294 294 294 295 297 298 300 302 303 306 308 310 309 306 307 310 313 313 303 294 296 298 293 290 291 287 279 274 266 249 236 232 229 228 228 227 227 228 229 229 229 229 230 229 227 227 228 228
288 289 289 289 289 290 292 296 298 297 299 302 303 302 301 298 294 290 289 288 288 289 291 293 295 296 297 297 296 297 298 300 305 308 307 308 311 312 309 307 309 313 313 313 308 296 294 297 293 289 289 284 277 272 264 247 232 227 225 226 227 226 225 225 226 227 227 227 227 227 226 226 227 228
287 288 287 287 288 291 294 297 298 300 303 305 305 302 299 296 294 295 296 296 295 295 296 297 299 300 300 301 300 301 303 306 309 308 305 307 310 311 311 310 312 314 313 313 310 299 294 297 295 288 284 280 274 268 258 240 226 222 222 224 227 226 223 222 223 224 225 225 225 225 225 226 227 228
285 285 284 285 288 292 296 297 300 304 307 306 304 301 297 296 297 299 301 301 301 301 303 305 305 303 305 308 309 309 309 310 311 308 304 306 308 309 311 314 315 312 310 312 311 302 297 295 290 283 277 271 270 270 256 233 220 218 219 223 227 224 220 218 219 220 221 222 222 223 223 225 226 228
282 282 283 285 289 293 296 299 302 306 307 306 303 300 297 298 301 303 305 307 308 308 308 309 309 311 314 316 314 312 312 313 314 312 308 306 306 308 311 316 317 310 308 314 316 307 299 291 282 277 270 262 262 268 256 228 216 214 217 223 225 222 217 215 216 217 218 218 219 220 221 222 224 226
279 280 281 285 290 294 296 300 304 306 306 305 303 300 300 303 307 310 310 311 312 312 314 316 318 320 320 317 316 315 315 317 320 319 315 309 308 311 315 320 320 313 312 319 321 311 300 287 275 271 265 257 254 255 251 226 212 212 218 223 223 219 215 214 214 214 214 215 216 217 217 218 219 222
277 280 283 287 291 294 297 301 304 306 306 305 302 302 305 311 315 315 315 316 319 322 324 323 322 322 319 317 318 319 319 322 325 325 322 315 313 317 322 325 324 318 318 324 324 311 296 283 272 265 258 253 250 247 245 228 211 212 219 223 221 216 213 213 214 214 214 214 215 214 213 214 216 219
277 281 285 288 290 293 297 302 304 306 305 304 304 308 313 318 319 318 319 324 327 327 326 323 321 320 319 319 321 322 323 326 329 329 326 321 318 321 326 331 332 327 327 331 326 308 289 282 274 264 255 248 244 241 240 232 217 215 219 220 219 216 213 212 213 214 214 215 213 210 209 211 213 215
278 282 285 287 290 294 298 302 304 306 307 309 311 315 318 320 320 319 321 324 324 322 322 321 320 320 321 321 323 325 326 327 329 330 327 324 323 326 328 333 338 338 339 340 332 308 287 278 268 261 257 253 248 241 235 232 227 223 223 222 219 217 215 213 211 212 214 213 210 207 207 207 208 208
279 280 282 286 291 296 300 303 307 311 313 314 315 317 320 321 319 319 320 320 319 317 316 317 317 318 321 322 324 326 327 327 328 329 328 326 327 329 329 333 341 347 349 351 344 318 288 269 262 263 261 260 259 249 235 235 237 232 228 228 224 221 218 215 212 210 211 211 209 207 207 207 206 205
279 281 284 289 294 299 304 307 312 315 314 315 315 317 321 321 318 318 319 318 317 315 314 314 316 318 321 323 324 326 326 327 327 329 330 330 331 333 334 338 348 355 355 357 356 337 298 265 258 262 261 257 259 259 243 237 239 237 233 229 228 228 224 219 215 212 210 209 208 207 206 206 205 205
281 285 290 295 298 304 309 312 313 314 313 314 316 318 320 319 317 318 319 319 318 318 317 318 319 322 325 326 326 327 326 326 327 329 332 333 334 337 340 344 352 358 358 359 1 350 315 276 263 261 260 257 255 254 250 233 232 236 235 229 229 233 231 226 221 218 214 209 205 205 205 204 203 204
285 290 295 299 303 307 310 309 309 311 313 314 316 317 317 317 317 318 319 319 320 319 320 322 324 327 329 328 328 328 326 325 327 330 334 336 337 341 346 349 355 360 0 1 2 355 326 294 279 270 265 263 261 262 261 244 231 234 236 234 233 234 236 233 227 223 219 211 205 205 206 204 204 204
288 293 296 300 304 306 307 306 307 310 313 315 316 316 318 318 319 319 319 319 321 323 325 328 330 331 331 330 329 328 326 326 329 333 336 338 340 345 350 353 359 3 3 2 3 2 348 312 291 281 268 260 263 271 272 261 249 243 239 238 237 235 234 231 226 224 221 212 204 203 204 204 205 207
290 293 297 301 304 305 305 305 308 312 315 316 317 318 320 320 320 321 321 322 326 329 331 333 333 333 331 330 330 329 328 329 332 336 339 341 343 346 350 355 3 8 8 6 6 7 3 343 301 279 265 258 260 269 274 271 265 256 245 240 237 231 224 218 219 224 221 212 205 204 203 202 204 207
293 298 301 303 303 303 305 308 313 318 319 319 319 320 322 324 324 324 324 326 329 332 333 333 333 332 331 330 331 333 333 333 334 338 341 344 347 348 350 356 5 11 13 12 10 10 10 3 334 243 235 253 261 267 273 274 267 254 243 236 232 225 216 209 210 217 215 208 205 206 204 202 204 207
298 302 305 303 303 305 308 313 318 321 322 322 322 323 324 326 326 325 326 328 330 331 332 332 332 332 332 333 335 338 337 336 337 342 346 347 349 349 350 358 7 12 16 16 13 11 14 14 7 263 214 224 237 240 249 269 263 244 231 220 215 214 210 206 206 210 209 204 201 202 203 205 207 210
302 303 302 302 304 308 313 316 318 319 320 321 323 323 323 324 325 325 325 326 328 329 331 333 335 337 337 338 340 342 342 341 343 349 351 349 349 352 353 0 9 13 16 20 19 15 17 22 23 24 165 210 206 191 164 124 104 181 207 191 185 187 186 189 200 206 205 202 201 202 204 207 210 212
301 298 297 300 306 312 314 316 316 317 318 318 319 320 321 323 324 324 324 325 327 331 335 339 342 343 343 344 345 346 347 349 352 355 357 353 351 354 357 2 10 13 15 21 24 22 22 26 28 29 34 43 57 71 84 104 108 96 215 162 156 165 172 179 199 205 201 203 206 207 209 212 215 216
293 291 294 301 310 316 315 313 314 317 317 318 319 320 322 323 323 323 325 328 333 339 345 348 351 351 349 349 351 352 353 357 359 360 0 357 354 355 358 1 7 12 16 22 27 28 30 32 31 29 30 33 37 45 58 71 74 42 268 230 198 190 197 206 214 214 211 209 208 209 210 213 217 217
289 289 295 305 313 317 314 312 314 317 319 321 322 323 323 324 325 327 331 338 345 351 355 358 359 358 355 353 355 357 358 2 4 2 1 0 358 357 359 2 5 9 15 24 29 31 33 36 36 35 36 38 40 49 63 73 73 57 29 249 224 217 217 218 218 217 218 215 212 215 216 212 208 206
288 290 299 306 311 313 311 311 314 317 320 323 324 324 325 327 330 335 342 349 355 359 4 5 4 3 359 357 358 359 1 4 7 5 3 2 1 358 359 4 8 8 13 23 31 34 36 37 38 38 41 45 49 54 58 60 58 53 54 59 70 205 221 221 219 217 219 218 216 218 220 217 212 209
288 292 300 306 308 308 308 310 313 316 319 322 324 326 330 335 340 346 352 358 2 5 6 7 6 5 3 0 359 1 3 5 7 7 5 4 3 359 359 7 12 9 9 20 32 37 38 37 36 35 38 44 49 51 51 52 51 51 56 64 69 74 104 219 223 221 220 220 220 221 220 217 216 217
291 297 303 305 305 303 304 306 310 313 317 322 326 332 339 344 349 354 359 3 7 8 6 5 5 6 7 5 2 2 5 7 8 9 7 7 6 3 3 12 16 11 10 25 42 45 43 39 35 33 36 43 48 50 51 54 55 53 53 59 67 74 78 83 115 209 217 215 217 221 222 220 221 225
294 302 305 304 301 299 300 303 306 310 316 323 330 339 347 351 353 357 2 6 9 8 5 4 4 5 7 7 5 4 7 10 11 10 8 8 10 9 9 16 19 15 16 28 48 53 52 49 41 36 37 41 45 49 52 54 56 56 53 53 59 66 72 76 82 102 155 177 193 212 218 220 224 229
297 302 303 300 298 298 300 302 304 309 317 328 337 344 349 351 352 357 1 5 7 7 4 3 4 6 7 7 5 6 8 10 12 14 12 11 12 13 13 16 20 20 21 25 33 48 59 58 53 46 43 43 45 48 51 53 55 57 56 54 55 58 62 68 74 81 85 85 86 114 186 209 221 228